CAPE
1155 1189 1223 1237 959 933 1201 1189 1320 1500 1010 713 603 985 919 607 584 1258 801 772 520 543
834 696 772 659 542 540 596 730 1399 1272 1295 1004 683 622 719 401 223 307 617 527 407 153
561 487 564 578 703 917 784 715 618 1076 899 761 377 778 335 319 232 203 140 1 1 1
231 288 333 287 391 731 462 649 533 481 645 710 398 287 231 202 191 133 0 1 1 2
394 355 314 344 688 682 434 522 629 533 482 361 292 229 254 228 42 0 1 3 1 2
272 318 472 453 367 677 273 345 186 315 174 154 171 124 4 0 0 0 0 0 0 0
204 364 466 381 406 243 181 135 109 68 14 0 0 0 0 0 0 0 0 0 0 0
446 352 381 224 144 141 96 9 0 0 0 0 0 0 0 0 0 0 0 0 0 0
184 184 196 98 11 0 0 0 0 0 0 0 0 0 0 0 0 0 0 0 0 0
6 22 0 0 1 0 0 0 0 0 0 0 0 0 0 0 0 0 0 0 0 0
5 0 4 0 0 0 0 0 0 0 1 3 2 2 1 0 0 1 0 0 0 0
8 0 0 0 0 0 0 5 13 20 23 28 26 2 0 0 0 0 0 0 0 0
8 0 1 0 2 6 15 20 20 9 0 0 0 0 0 0 0 0 0 0 0 0
10 9 9 12 10 17 7 2 0 0 0 2 0 0 0 0 0 0 0 0 0 0
CIN
-46 -15 -19 -9 -12 -17 -14 -17 0 0 -11 -34 -49 -19 -4 -20 -16 0 0 0 0 0
-84 -73 -54 -36 -43 -40 -29 -18 0 0 0 -7 -30 -30 -9 -38 -50 -22 0 0 0 -13
-124 -94 -72 -73 -60 -9 -9 -21 -30 -2 -7 -8 -30 -5 -30 -28 -30 -13 0 0 0 0
-201 -131 -84 -87 -67 -28 -40 -25 -19 -19 -6 0 -15 -25 -27 -5 0 -5 -10 0 0 0
-113 -100 -86 -52 -15 -10 -34 -16 -2 -4 -5 -7 -5 -12 -3 0 -31 0 0 0 0 0
-103 -65 -23 -14 -17 -4 -25 -12 -17 -3 -9 -7 0 -9 -19 0 0 0 0 0 0 0
-96 -29 -6 -1 0 -2 -2 -4 -14 -28 -19 0 0 0 0 0 0 0 0 0 0 0
-11 -3 0 0 -7 0 -4 -23 0 0 0 0 0 0 0 0 0 0 0 0 0 0
-7 0 0 0 -49 0 0 0 0 0 0 0 0 0 0 0 0 0 0 0 0 0
-22 -11 0 0 0 0 0 0 0 0 0 0 0 0 0 0 0 0 0 0 0 0
0 0 0 0 0 0 0 0 0 -23 -10 -15 -5 -4 0 0 0 -1 0 0 0 0
0 0 0 0 0 0 -17 -24 -8 -1 0 0 -3 0 0 0 0 0 0 0 0 0
0 0 -7 -2 -17 -10 -4 0 0 0 0 0 0 0 0 0 0 0 0 0 0 0
0 0 -7 -19 -19 -14 -6 0 0 0 0 0 0 0 0 0 0 0 0 0 0 0
Wind_Speed
47 42 42 42 40 37 38 41 40 41 40 42 42 46 48 45 44 48 48 44 41 43
46 47 47 47 42 37 40 43 43 44 43 40 44 47 46 46 47 48 46 45 45 46
46 46 47 47 42 37 38 43 45 45 45 45 45 47 45 44 44 48 47 nan nan nan
50 50 51 50 45 43 42 43 46 45 46 45 46 45 45 46 48 50 nan nan nan nan
55 54 56 55 48 46 46 46 47 47 45 46 46 48 50 51 nan nan nan nan nan nan
57 56 61 56 50 44 46 48 48 47 47 50 50 52 nan nan nan nan nan nan nan nan
54 59 63 58 54 51 49 50 51 nan nan nan nan nan nan nan nan nan nan nan nan nan
58 67 67 63 59 56 nan nan nan nan nan nan nan nan nan nan nan nan nan nan nan nan
68 70 68 nan nan nan nan nan nan nan nan nan nan nan nan nan nan nan nan nan nan nan
nan nan nan nan nan nan nan nan nan nan nan nan nan nan nan nan nan nan nan nan nan nan
nan nan nan nan nan nan nan nan nan nan nan nan nan nan nan nan nan nan nan nan nan nan
nan nan nan nan nan nan nan nan nan nan nan nan nan nan nan nan nan nan nan nan nan nan
nan nan nan nan nan nan nan nan nan nan nan nan nan nan nan nan nan nan nan nan nan nan
nan nan nan nan nan nan nan nan nan nan nan nan nan nan nan nan nan nan nan nan nan nan
Wind_Direction
310 318 318 312 301 294 285 276 268 264 260 262 263 262 267 269 270 272 274 280 283 286
308 316 317 310 302 297 286 280 276 272 270 267 266 267 270 269 271 276 282 284 288 289
307 313 314 311 301 294 289 285 282 278 275 275 272 270 272 273 274 277 279 nan nan nan
303 308 311 308 303 292 285 284 279 276 274 272 272 273 275 278 280 281 nan nan nan nan
299 303 308 306 304 293 288 283 281 274 272 272 272 272 274 277 nan nan nan nan nan nan
296 300 307 305 304 297 286 283 280 274 274 271 271 272 nan nan nan nan nan nan nan nan
296 301 304 301 300 295 286 279 274 nan nan nan nan nan nan nan nan nan nan nan nan nan
293 301 300 298 295 292 nan nan nan nan nan nan nan nan nan nan nan nan nan nan nan nan
299 299 297 nan nan nan nan nan nan nan nan nan nan nan nan nan nan nan nan nan nan nan
nan nan nan nan nan nan nan nan nan nan nan nan nan nan nan nan nan nan nan nan nan nan
nan nan nan nan nan nan nan nan nan nan nan nan nan nan nan nan nan nan nan nan nan nan
nan nan nan nan nan nan nan nan nan nan nan nan nan nan nan nan nan nan nan nan nan nan
nan nan nan nan nan nan nan nan nan nan nan nan nan nan nan nan nan nan nan nan nan nan
nan nan nan nan nan nan nan nan nan nan nan nan nan nan nan nan nan nan nan nan nan nan